Weather History for Bangkok (Suvarnabhumi), Thailand

Change the Weather History Date:

Wednesday, December 18, 2013

  Actual Average (VTBD) Record (VTBD)
Temperature  
Mean Temperature 73 °F -  
Max Temperature 83 °F 90 °F 96 °F (2012)
Min Temperature 63 °F 69 °F 63 °F (2013)
Cooling Degree Days 8    
Growing Degree Days 23 (Base 50)    
Moisture  
Dew Point 57 °F    
Average Humidity 60    
Maximum Humidity 81    
Minimum Humidity 31    
Precipitation  
Precipitation 0.00 in 0.01 in - ()
Sea Level Pressure  
Sea Level Pressure 29.91 in    
Wind  
Wind Speed 5 mph ()    
Max Wind Speed 9 mph    
Max Gust Speed 17 mph    
Visibility 6.1 miles    
Events      
Averages and records for this station are not official NWS values.
T = Trace of Precipitation, MM = Missing Value Source: Averaged Metar Reports

Daily Weather History Graph

Daily Weather History Graph

Search for Another Location

Airport:

Trip Planner

Search our weather history database for the weather conditions in past years. The results will help you decide how hot, cold, wet, or windy it might be!

Date:

Astronomy

Dec. 18, 2013 Rise Set
Actual Time 6:32 AM ICT 5:52 PM ICT
Civil Twilight 6:09 AM ICT 6:16 PM ICT
Nautical Twilight 5:42 AM ICT 6:42 PM ICT
Astronomical Twilight 5:16 AM ICT 7:09 PM ICT
Moon 6:45 PM ICT (12/18) 6:59 AM ICT (12/18)
Length of Visible Light 12h 06m
Length of Day
11h 20m
Full, 99% of the Moon is Illuminated
Dec 18
Full
Dec 25
Last Quarter
Jan 1
New
Jan 8
First Quarter
Jan 16
Full

Hourly Weather History & Observations

Time (ICT) Temp. Heat Index Dew Point Humidity Pressure Visibility Wind Dir Wind Speed Gust Speed Precip Events Conditions
12:00 AM 69.8 °F - 59.0 °F 68% 29.92 in 6.2 mi East 6.9 mph - N/A   Scattered Clouds
12:30 AM 69.8 °F - 59.0 °F 68% 29.92 in 6.2 mi ENE 5.8 mph - N/A   Scattered Clouds
1:00 AM 66 °F - 61 °F 80% 29.91 in 6 mi NNE 4.6 mph - -  
1:00 AM 68.0 °F - 57.2 °F 68% 29.92 in 6.2 mi NE 5.8 mph - N/A   Scattered Clouds
1:30 AM 68.0 °F - 57.2 °F 68% 29.92 in 6.2 mi NE 8.1 mph - N/A   Scattered Clouds
2:00 AM 68.0 °F - 57.2 °F 68% 29.92 in 6.2 mi NNE 5.8 mph - N/A   Scattered Clouds
2:30 AM 66.2 °F - 57.2 °F 73% 29.92 in 6.2 mi North 5.8 mph - N/A   Scattered Clouds
3:00 AM 64.4 °F - 57.2 °F 77% 29.89 in 6.2 mi North 4.6 mph - N/A   Scattered Clouds
3:30 AM 64.4 °F - 57.2 °F 77% 29.89 in - North 5.8 mph - N/A   Clear
4:00 AM 65 °F - 61 °F 81% 29.88 in 6 mi ENE 4.6 mph - -  
4:00 AM 64.4 °F - 57.2 °F 77% 29.89 in - NNE 5.8 mph - N/A   Clear
4:30 AM 64.4 °F - 57.2 °F 77% 29.92 in - North 6.9 mph - N/A   Clear
5:00 AM 64.4 °F - 57.2 °F 77% 29.92 in - NNE 5.8 mph - N/A   Clear
5:30 AM 64.4 °F - 57.2 °F 77% 29.92 in - NNE 4.6 mph - N/A   Clear
6:00 AM 64.4 °F - 57.2 °F 77% 29.92 in - North 4.6 mph - N/A   Clear
6:30 AM 64.4 °F - 57.2 °F 77% 29.95 in 6.2 mi North 3.5 mph - N/A   Scattered Clouds
7:00 AM 65 °F - 60 °F 77% 29.92 in 6 mi ENE 3.5 mph - -  
7:00 AM 64.4 °F - 57.2 °F 77% 29.95 in 6.2 mi NNW 3.5 mph - N/A   Scattered Clouds
7:30 AM 66.2 °F - 59.0 °F 78% 29.95 in 6.2 mi NNE 4.6 mph - N/A   Scattered Clouds
8:00 AM 68.0 °F - 59.0 °F 73% 29.98 in 6.2 mi NNE 4.6 mph - N/A   Mostly Cloudy
8:30 AM 68.0 °F - 57.2 °F 68% 29.98 in - East 6.9 mph - N/A   Clear
9:00 AM 69.8 °F - 57.2 °F 64% 29.98 in - ENE 8.1 mph - N/A   Clear
9:30 AM 71.6 °F - 57.2 °F 60% 29.98 in 6.2 mi ENE 8.1 mph - N/A   Scattered Clouds
10:00 AM 74 °F - 58 °F 48% 29.97 in 5 mi ENE 8.1 mph - -   Haze
10:00 AM 73.4 °F - 57.2 °F 57% 29.98 in 6.2 mi ENE 6.9 mph - N/A   Scattered Clouds
10:30 AM 73.4 °F - 57.2 °F 57% 29.98 in 6.2 mi ENE 6.9 mph - N/A   Scattered Clouds
11:00 AM 75.2 °F - 57.2 °F 53% 29.98 in 6.2 mi East 5.8 mph - N/A   Scattered Clouds
11:30 AM 75.2 °F - 57.2 °F 53% 29.98 in 6.2 mi Variable 5.8 mph 17.3 mph N/A   Scattered Clouds
12:00 PM 77.0 °F - 57.2 °F 50% 29.95 in 6.2 mi ENE 8.1 mph - N/A   Scattered Clouds
12:30 PM 77.0 °F - 57.2 °F 50% 29.92 in 6.2 mi NNW 5.8 mph - N/A   Scattered Clouds
1:00 PM 81 °F - 56 °F 32% 29.88 in 6 mi East 3.5 mph - -  
1:00 PM 78.8 °F - 55.4 °F 44% 29.89 in 6.2 mi NNE 6.9 mph - N/A   Scattered Clouds
1:30 PM 78.8 °F - 55.4 °F 44% 29.89 in 6.2 mi Variable 6.9 mph - N/A   Scattered Clouds
2:00 PM 78.8 °F - 55.4 °F 44% 29.86 in 6.2 mi Variable 5.8 mph - N/A   Scattered Clouds
2:30 PM 80.6 °F 80.5 °F 55.4 °F 42% 29.86 in 6.2 mi Variable 6.9 mph - N/A   Scattered Clouds
3:00 PM 80.6 °F 80.8 °F 57.2 °F 45% 29.83 in 6.2 mi NNW 8.1 mph - N/A   Scattered Clouds
3:30 PM 80.6 °F 80.5 °F 55.4 °F 42% 29.83 in 6.2 mi North 6.9 mph - N/A   Scattered Clouds
4:00 PM 82 °F - 57 °F 31% 29.81 in 6 mi East 2.3 mph - -  
4:00 PM 78.8 °F - 55.4 °F 44% 29.83 in 6.2 mi North 6.9 mph - N/A   Scattered Clouds
4:30 PM 78.8 °F - 57.2 °F 47% 29.83 in 6.2 mi NE 8.1 mph - N/A   Scattered Clouds
5:00 PM 78.8 °F - 57.2 °F 47% 29.83 in 6.2 mi ENE 9.2 mph - N/A   Scattered Clouds
5:30 PM 77.0 °F - 57.2 °F 50% 29.86 in - NNE 5.8 mph - N/A   Clear
6:00 PM 75.2 °F - 55.4 °F 50% 29.86 in - North 5.8 mph - N/A   Clear
6:30 PM 73.4 °F - 57.2 °F 57% 29.86 in - North 6.9 mph - N/A   Clear
7:00 PM 75 °F - 61 °F 52% 29.85 in 6 mi Calm Calm - -   Haze
7:00 PM 73.4 °F - 57.2 °F 57% 29.89 in - NNW 5.8 mph - N/A   Clear
7:30 PM 73.4 °F - 57.2 °F 57% 29.89 in - North 3.5 mph - N/A   Clear
8:00 PM 73.4 °F - 59.0 °F 61% 29.92 in - North 4.6 mph - N/A   Clear
8:30 PM 73.4 °F - 57.2 °F 57% 29.92 in - North 6.9 mph - N/A   Clear
9:00 PM 71.6 °F - 57.2 °F 60% 29.92 in - NNW 5.8 mph - N/A   Clear
9:30 PM 71.6 °F - 57.2 °F 60% 29.92 in 6.2 mi North 3.5 mph - N/A   Scattered Clouds
10:00 PM 72 °F - 61 °F 61% 29.91 in 5 mi NE 3.5 mph - -   Mist
10:00 PM 73.4 °F - 57.2 °F 57% 29.92 in 6.2 mi ENE 6.9 mph - N/A   Scattered Clouds
10:30 PM 73.4 °F - 57.2 °F 57% 29.95 in 6.2 mi East 8.1 mph - N/A   Scattered Clouds
11:00 PM 71.6 °F - 57.2 °F 60% 29.95 in 6.2 mi East 6.9 mph - N/A   Mostly Cloudy
11:30 PM 71.6 °F - 57.2 °F 60% 29.95 in 6.2 mi ENE 9.2 mph - N/A   Scattered Clouds